Location: Wildlife_Club
(35.6000°N, 81.4330°W)
Time: 06:26:22
(UTC-04:00)

A-11 Canister half - Pass Details

Date: 30 June 2019
Orbit: 1514 x 1685 km, 47.2° (Epoch: 16 July)

Event Time Altitude Azimuth Distance (km) Brightness Sun altitude
Rises 08:12:33 0° 212° (SSW) 4,924 11.3 21.7°
Reaches altitude 10° 08:15:50 10° 207° (SSW) 3,939 10.8 22.3°
Maximum altitude 08:25:32 52° 135° (SE) 2,000 10.3 24.2°
Drops below altitude 10° 08:35:04 10° 62° (ENE) 3,888 12.6 26.1°
Sets 08:38:16 0° 58° (ENE) 4,856 12.7 26.8°
